Location: Vale
(35.4830°N, 81.3830°W)
Time: 18:48:55
(UTC-04:00)

SR - All Passes

Search period start: 28 June 2017 00:00
Search period end: 08 July 2017 00:00
Orbit: 575 x 882 km, 66.7° (Epoch: 28 June)

Date Brightness Start Highest point End Pass type
(mag) Time Alt. Az. Time Alt. Az. Time Alt. Az.
28 Jun - 00:06:48 10° NNW 00:11:59 72° ENE 00:16:41 10° SSE visible
28 Jun - 12:54:39 10° ESE 12:56:42 12° ESE 12:58:45 10° E daylight
28 Jun - 14:32:08 10° SSW 14:38:01 87° WNW 14:43:59 10° NNE daylight
28 Jun - 16:17:44 10° W 16:20:57 15° NW 16:24:10 10° NNW daylight
28 Jun - 23:17:40 10° N 23:22:23 34° NE 23:26:43 10° ESE visible
29 Jun - 01:00:13 10° NW 01:04:12 24° WSW 01:07:56 10° SSW visible
29 Jun - 13:43:04 10° S 13:48:40 48° ESE 13:54:20 10° NE daylight
29 Jun - 15:26:08 10° WSW 15:31:01 26° NW 15:35:54 10° N daylight
29 Jun - 22:29:03 10° N 22:32:33 18° NE 22:35:50 10° E visible
30 Jun - 00:10:05 10° NW 00:15:04 54° WSW 00:19:35 10° S visible
30 Jun - 12:54:54 10° SSE 12:59:30 24° ESE 13:04:07 10° NE daylight
30 Jun - 14:35:37 10° SW 14:41:17 48° WNW 14:46:59 10° NNE daylight
30 Jun - 23:20:33 10° NNW 23:25:41 68° ENE 23:30:21 10° SE visible
01 Jul - 01:05:53 10° W 01:06:55 11° WSW 01:07:55 10° WSW visible
01 Jul - 12:08:52 10° ESE 12:10:28 11° ESE 12:12:04 10° E daylight
01 Jul - 13:45:51 10° SSW 13:51:46 90° ESE 13:57:42 10° NNE daylight
01 Jul - 15:31:16 10° W 15:34:39 15° NW 15:38:00 10° NNW daylight
01 Jul - 22:31:26 10° N 22:36:04 32° NE 22:40:19 10° ESE visible
02 Jul - 00:13:53 10° NW 00:17:56 25° WSW 00:21:43 10° SSW visible
02 Jul - 12:56:50 10° S 13:02:25 46° ESE 13:08:02 10° NE daylight
02 Jul - 14:39:45 10° WSW 14:44:44 27° NW 14:49:40 10° N daylight
02 Jul - 21:42:54 10° N 21:46:13 17° NE 21:49:21 10° E visible
02 Jul - 23:23:48 10° NW 23:28:47 57° WSW 23:33:18 10° S visible
03 Jul - 12:08:45 10° SSE 12:13:15 23° ESE 12:17:45 10° NE daylight
03 Jul - 13:49:17 10° SW 13:55:01 50° WNW 14:00:44 10° NNE daylight
03 Jul - 22:34:18 10° NNW 22:39:24 64° ENE 22:44:00 10° SE visible
04 Jul - 00:19:12 10° W 00:20:40 11° WSW 00:22:05 10° WSW visible
04 Jul - 11:23:16 10° ESE 11:24:14 10° E 11:25:12 10° E daylight
04 Jul - 12:59:35 10° SSW 13:05:30 86° ESE 13:11:26 10° NNE daylight
04 Jul - 14:44:48 10° W 14:48:20 16° NW 14:51:51 10° N daylight
04 Jul - 21:45:14 10° N 21:49:45 30° NE 21:53:56 10° ESE visible
04 Jul - 23:27:33 10° NW 23:31:40 26° WSW 23:35:30 10° SSW visible
05 Jul - 12:10:38 10° S 12:16:10 44° ESE 12:21:44 10° NE daylight
05 Jul - 13:53:24 10° WSW 13:58:26 28° NW 14:03:26 10° N daylight
05 Jul - 20:56:45 10° N 20:59:53 16° NE 21:02:51 10° E daylight
05 Jul - 22:37:31 10° NW 22:42:30 61° WSW 22:47:01 10° SSE visible
06 Jul - 11:22:38 10° SSE 11:27:00 22° ESE 11:31:23 10° ENE daylight
06 Jul - 13:02:59 10° SW 13:08:44 52° WNW 13:14:28 10° NNE daylight
06 Jul - 21:48:03 10° NNW 21:53:05 60° ENE 21:57:39 10° SE visible
06 Jul - 23:32:37 10° W 23:34:24 12° WSW 23:36:08 10° SW visible
07 Jul - 12:13:20 10° SSW 12:19:14 82° ESE 12:25:09 10° NNE daylight
07 Jul - 13:58:21 10° W 14:02:01 17° NW 14:05:39 10° N daylight
07 Jul - 20:59:01 10° N 21:03:26 29° NE 21:07:31 10° ESE daylight
07 Jul - 22:41:13 10° NW 22:45:24 28° WSW 22:49:17 10° SSW visible
